CAPE
2358 2589 2784 2853 2934 3252 3179 3950 3747 3883 4295 4276 4027 3681 3811 3879 4014 4333 4184 4019 4086 3854 3638 3960 3841 3413 3361 3345 3597 3847 3441 3186 2716 2810 2818 2517 3360 3323 3456 3610 3938 3487 3110
2301 2613 2750 2849 2712 2589 3048 3473 4200 4059 4322 3942 4072 4279 4202 3911 3948 4048 3503 2319 3712 3834 3816 3682 3557 3049 3890 4006 3801 3638 3132 3055 3101 2627 2858 3348 2722 2214 2614 3890 3503 2633 2706
2512 2387 2379 2575 2338 2512 2647 2811 3664 3741 3551 3868 3915 3800 3975 3911 3749 3789 3969 3727 4067 3931 3545 3877 3838 3887 3966 3742 3886 4000 3515 3112 3393 2968 2400 2455 2573 2750 2409 2313 3167 3222 3224
2396 2244 2477 1970 1957 2109 2438 2794 2783 3624 3375 3520 3871 3849 3938 3877 3533 3438 3304 3764 4067 3871 4172 4451 4340 4234 3921 4230 4250 4018 3919 3947 3634 3525 3080 2731 2070 1406 1512 1781 1211 1128 1638
2397 2303 2246 2253 2090 1981 1823 2330 2807 3178 3515 3637 3599 3691 3889 3813 3379 3411 3426 3467 3455 3405 3525 3958 4239 4204 3430 3884 3749 3854 4193 3877 2906 2227 1948 1831 1771 1619 1804 1640 1719 1502 2038
2612 2266 2525 2667 2485 2407 2501 1867 2399 3361 2854 3640 3597 3449 3567 3272 2690 2538 2717 3263 3300 3415 3242 3413 3542 3228 2865 2640 2398 2411 2598 2835 2782 2800 2674 2554 2485 2267 2218 2354 2514 2503 2134
3514 2851 2965 2767 2617 2967 2970 3257 3075 2989 3375 3260 3610 3457 2983 3328 2704 2319 1574 2100 3201 3036 3182 3235 3159 2923 2668 2966 2853 2390 2245 2200 2126 2190 2425 2324 2228 2294 2630 2915 2705 2364 2062
3503 3063 3160 3156 3449 3327 3407 3243 3681 3926 3371 2959 2550 2889 3282 3208 2590 2353 2070 1672 2334 2911 2910 2636 2917 2920 2761 2447 2354 2293 2247 2280 2131 2057 1949 1793 1830 2209 2636 2587 2363 2074 1580
2826 3161 3153 3326 3381 3451 3415 3328 3304 2874 2724 3125 2807 1867 2286 2641 2331 2208 2061 1794 1793 2070 2349 2593 2655 2594 2365 2210 2008 2305 2424 2399 2387 2475 2207 1964 1839 1908 1939 1848 1856 1178 847
1963 2095 2712 2800 2699 2786 2133 2361 2041 1258 981 1592 2348 1760 1607 1614 2084 2262 2146 1929 2175 2120 2030 1922 1714 1633 1785 1820 1765 1968 2176 2445 2727 2963 2925 2936 3137 3063 2710 2208 1841 1289 1081
1820 2008 1836 1701 1706 1710 1741 1306 1025 854 619 1312 1300 899 628 935 1336 1565 1848 1719 2170 2328 2284 1957 1731 1368 1460 1539 1614 1593 1974 2231 2610 2504 2917 2566 2370 2539 2623 2015 1953 1630 1907
1342 1190 1040 1020 1030 1184 1094 791 360 372 159 100 81 166 235 352 773 815 948 1026 266 835 1822 2123 2340 1861 1721 1684 1779 1529 1419 1383 1337 1435 1726 1919 2063 2766 2179 2028 1757 1550 1566
696 668 638 532 581 702 1026 917 763 458 267 600 575 448 226 231 302 230 522 705 830 1374 1817 2083 2073 1988 1865 1604 1806 1873 1727 1561 1454 1572 1889 2106 2441 2104 2018 1942 1741 1490 1402
625 777 942 1065 811 1038 1216 1211 702 453 449 474 328 197 242 567 398 399 409 429 594 1082 1273 1453 1505 1500 1523 1615 2232 2110 1467 1482 1646 2061 2464 2930 2083 1983 1993 2061 1663 1833 1021
177 384 776 666 670 689 779 346 212 292 246 271 225 143 157 133 110 171 205 183 337 559 528 579 744 1473 2338 2548 2511 2718 2130 2191 2423 2167 2129 2025 2254 2183 2016 1610 1411 1085 333
67 30 108 105 494 506 374 72 30 26 19 0 0 0 0 0 0 0 0 1 9 36 106 271 733 1059 1353 1300 1448 1472 1536 1531 1790 1808 1941 1824 2132 2356 1934 1854 1399 1117 606
11 0 42 40 25 18 133 376 112 0 0 0 0 0 0 0 0 0 0 10 23 66 147 560 714 814 1108 1518 1608 1383 854 660 615 860 1281 2069 2227 2161 1817 1692 1542 1319 1209
0 0 0 0 0 0 0 0 0 54 11 1 0 0 0 0 0 0 0 0 0 0 0 2 26 87 167 238 307 357 315 251 169 121 164 279 868 1608 1692 1510 1582 1363 1048
0 0 0 0 0 0 0 0 0 0 7 13 20 0 0 0 0 0 0 0 0 0 0 0 0 0 0 4 21 45 49 93 191 187 190 234 411 641 1306 1467 1288 1163 1092
0 0 0 0 0 0 0 0 0 11 15 5 0 3 0 0 0 6 3 0 0 0 0 1 0 0 0 0 0 1 10 120 170 106 131 379 729 1176 1081 1318 1393 1254 1474
0 0 0 0 0 0 0 0 0 3 3 1 18 0 0 0 0 0 4 0 0 0 0 0 0 0 0 0 0 0 0 9 49 98 132 565 413 980 1209 1169 1058 869 1097
0 0 1 6 15 37 33 11 5 0 0 1 5 1 0 0 0 0 4 8 1 0 0 0 0 0 0 0 0 0 0 0 3 18 50 101 435 662 664 1019 675 547 709
1 0 0 0 0 9 9 4 3 0 0 10 1 0 0 0 10 0 0 0 0 4 1 0 0 0 0 0 0 0 0 0 0 0 14 28 71 234 315 333 353 455 844
0 0 0 0 1 0 5 30 37 2 1 0 0 0 0 0 0 0 3 0 0 0 0 0 0 0 0 0 0 0 0 0 0 0 0 0 2 36 59 90 118 197 370
0 0 0 0 12 18 6 18 42 23 2 10 17 25 12 3 0 0 0 1 0 0 0 0 0 0 0 0 0 0 0 0 0 0 0 0 0 0 0 50 140 142 245
0 0 0 3 19 27 44 37 12 6 27 28 14 19 12 4 1 0 1 9 2 0 0 0 0 0 0 0 0 0 0 0 0 0 0 0 0 0 0 2 8 123 197
CIN
-12 -2 -2 -1 -12 -16 -14 -3 -13 -14 -10 -14 -8 -8 -6 -6 -6 -7 -7 -4 -8 -15 -18 -9 -12 -23 -32 -38 -32 -30 -41 -42 -33 -77 -92 -112 -87 -99 -57 -96 -71 -103 -100
-20 -5 -3 -2 -4 -15 -15 -10 -7 -11 -3 -12 -8 -4 -5 -9 -11 -10 -10 -16 -17 -14 -16 -22 -16 -12 -18 -25 -21 -45 -60 -63 -40 -69 -85 -54 -98 -177 -150 -92 -62 -48 -51
-29 -9 -4 -1 -17 -8 -8 -16 -7 -14 -14 -2 -16 -12 -5 -9 -6 -12 -11 -7 -8 -11 -23 -22 -21 -21 -21 -18 -19 -15 -25 -37 -36 -37 -69 -70 -82 -70 -67 -94 -89 -73 -69
-30 -29 -3 -35 -40 -29 -13 -10 -12 -7 -8 -5 -6 -8 -6 -8 -20 -13 -9 -11 -11 -12 -16 -10 -15 -19 -27 -22 -14 -18 -16 -19 -20 -16 -20 -26 -82 -141 -109 -81 -92 -89 -46
-43 -35 -31 -32 -43 -43 -51 -23 -16 -9 -4 -5 -5 -6 -7 -5 -2 -12 -8 -7 -15 -11 -12 -15 -10 -9 -7 -14 -7 -20 -18 -19 -30 -42 -70 -58 -90 -101 -83 -85 -61 -57 -17
-53 -45 -41 -24 -38 -37 -24 -64 -29 -15 -23 -14 -4 -5 -5 -0 -0 -2 -4 -8 -7 -12 -14 -19 -16 -5 -8 -8 -12 -14 -26 -50 -51 -42 -32 -25 -53 -60 -45 -14 -4 -2 -1
-23 -32 -27 -28 -19 -12 -14 -10 -18 -21 -25 -16 -9 -4 -6 -3 -3 -3 -2 -52 -15 -13 -30 -21 -8 -0 -1 -32 -16 -8 -11 -22 -27 -64 -47 -56 -52 -69 -31 -8 -7 -6 -18
-2 -16 -11 -6 -4 -8 -7 -5 -7 -9 -8 -15 -12 -7 -4 -3 -5 -4 -8 -13 -39 -27 -21 -23 -28 -22 -24 -29 -57 -53 -63 -72 -69 -30 -26 -28 -109 -89 -51 -27 -25 -10 -16
-24 -10 -7 -4 -2 -3 -5 -6 -6 -7 -14 -4 -2 -41 -30 -14 -20 -15 -5 -6 -30 -29 -25 -21 -16 -18 -35 -47 -37 -44 -54 -65 -46 -33 -29 -25 -37 -17 -10 -5 -12 -19 -61
-13 -22 -5 -4 -3 -9 -41 -15 -13 -59 -17 -39 -25 -64 -52 -30 -8 -11 -8 -24 -9 -8 -32 -42 -43 -56 -74 -68 -59 -85 -57 -60 -44 -36 -31 -28 -11 -15 -20 -6 -11 -34 -30
-1 -0 -0 -15 -30 -48 -42 -55 -85 -98 -71 -1 -11 -99 -107 -179 -12 -21 -10 -11 -24 -27 -21 -9 -20 -16 -11 -8 -10 -8 -62 -58 -48 -19 -16 -28 -36 -34 -54 -57 -52 -20 -0
-6 -22 -19 -27 -47 -64 -64 -49 -39 -8 -36 -56 -110 -155 -211 -141 -30 -0 -11 -20 -49 -7 -14 -29 -15 -22 -36 -60 -72 -81 -54 -32 -55 -98 -65 -60 -43 -31 -50 -33 -51 -55 -24
-58 -73 -76 -74 -110 -96 -29 -34 -14 -92 -142 -90 -84 -109 -126 -17 -6 -9 -8 -14 -2 -3 -3 -0 -1 -4 -16 -68 -55 -34 -31 -34 -44 -97 -65 -47 -35 -53 -29 -12 -45 -43 -28
-23 -14 -45 -7 -16 -19 -4 -5 -30 -47 -66 -101 -140 -126 -25 -19 -60 -33 -43 -37 -36 -13 -24 -20 -11 -10 -8 -41 -11 -9 -50 -92 -54 -39 -15 -16 -18 -19 -30 -11 -31 -15 -97
-80 -63 -24 -10 -11 -8 -14 -98 -160 -137 -154 -159 -127 -146 -84 -63 -135 -117 -136 -112 -107 -76 -70 -61 -42 -18 -1 -4 -5 -10 -20 -27 -11 -10 -16 -28 -19 -12 -12 -55 -76 -106 -209
-116 -144 -45 -72 -19 -16 -28 -160 -64 -89 -127 -0 -0 -0 -0 -0 -0 -0 -88 -211 -250 -197 -174 -161 -57 -13 -0 -0 -0 -0 -0 -2 -1 -6 -19 -19 -18 -9 -19 -16 -95 -62 -101
-114 -1 -36 -51 -84 -101 -63 -26 -75 -0 -0 -0 -0 -0 -0 -0 -0 -0 -0 -328 -286 -237 -192 -49 -33 -18 -1 -0 -0 -0 -27 -59 -83 -44 -9 -0 -0 -5 -22 -5 -29 -40 -30
-0 -0 -0 -0 -0 -0 -0 -0 -0 -58 -51 -3 -0 -0 -0 -0 -0 -0 -0 -0 -0 -0 -18 -272 -173 -199 -181 -161 -128 -92 -74 -126 -169 -252 -238 -192 -55 -0 -1 -1 -20 -9 -43
-0 -0 -0 -0 -0 -0 -0 -0 -0 -5 -7 -22 -96 -0 -0 -0 -0 -0 -0 -0 -0 -0 -0 -0 -0 -0 -0 -300 -219 -211 -213 -187 -159 -180 -204 -218 -147 -66 -0 -0 -2 -28 -42
-0 -0 -0 -0 -0 -0 -11 -0 -0 -8 -17 -21 -0 -0 -0 -0 -0 -18 -4 -0 -0 -0 -0 -0 -0 -0 -0 -0 -0 -60 -222 -126 -124 -156 -163 -111 -29 -1 -0 -0 -0 -10 -5
-0 -0 -0 -0 -0 -0 -0 -0 -0 -1 -0 -0 -0 -0 -0 -0 -0 -0 -1 -0 -0 -0 -0 -0 -0 -0 -0 -0 -0 -0 -0 -182 -98 -107 -123 -12 -59 -0 -0 -0 -0 -4 -10
-0 -0 -0 -0 -2 -2 -3 -1 -1 -0 -0 -0 -0 -3 -0 -0 -0 -0 -0 -4 -0 -0 -0 -0 -0 -0 -0 -0 -0 -0 -0 -0 -38 -69 -73 -76 -8 -0 -1 -0 -2 -13 -10
-1 -0 -0 -0 -0 -3 -2 -5 -2 -0 -0 -0 -0 -0 -0 -0 -1 -0 -0 -0 -0 -0 -4 -0 -0 -0 -0 -0 -0 -0 -0 -0 -0 -0 -17 -59 -48 -4 -13 -4 -2 -4 -0
-0 -0 -0 -0 -1 -0 -5 -1 -1 -0 -3 -0 -0 -0 -0 -0 -0 -0 -2 -0 -0 -0 -0 -0 -0 -0 -0 -0 -0 -0 -0 -0 -0 -0 -0 -0 -7 -40 -66 -48 -35 -22 -0
-0 -0 -0 -0 -0 -0 -8 -5 -1 -1 -1 -1 -1 -1 -0 -1 -0 -0 -0 -2 -0 -0 -0 -0 -0 -0 -0 -0 -0 -0 -0 -0 -0 -0 -0 -0 -0 -0 -0 -16 -9 -14 -6
-0 -0 -0 -6 -0 -0 -0 -1 -3 -20 -4 -1 -3 -4 -6 -3 -0 -0 -1 -5 -1 -0 -0 -0 -0 -0 -0 -0 -0 -0 -0 -0 -0 -0 -0 -0 -0 -0 -0 -8 -0 -10 -7
Wind_Speed
20 17 19 22 20 19 20 20 15 18 22 24 21 18 16 14 15 19 16 16 18 18 15 15 18 17 16 16 19 21 22 25 22 22 27 24 25 27 24 26 30 32 32
19 21 20 21 21 17 17 18 21 19 21 21 21 19 19 17 17 17 17 15 23 20 21 21 21 22 22 22 22 22 24 24 24 16 20 23 23 22 28 31 32 31 32
24 20 21 17 18 17 17 16 20 20 18 21 21 19 20 18 20 18 17 16 17 19 20 23 25 27 26 27 26 26 26 25 24 20 13 16 19 28 28 31 31 34 37
22 19 17 16 16 16 16 19 18 20 19 21 22 22 21 20 19 19 19 21 20 17 18 22 24 25 26 27 26 25 25 24 23 25 22 22 26 27 31 33 26 31 32
20 17 14 19 18 18 19 17 19 16 20 22 22 21 24 23 24 24 21 21 22 19 18 21 20 19 18 21 23 25 27 27 26 26 23 24 25 28 29 28 29 28 27
11 8 10 12 17 19 20 21 18 22 21 23 22 19 22 24 24 23 26 25 23 22 21 21 20 20 21 21 23 26 29 29 28 30 30 30 28 28 28 29 31 28 26
15 13 12 11 8 10 13 18 21 20 24 21 23 23 20 21 21 26 28 28 26 25 28 25 26 25 27 26 25 26 27 28 33 32 30 28 23 23 26 27 27 32 31
19 17 16 15 18 21 19 18 18 20 18 18 17 19 21 22 22 23 31 33 29 25 26 24 26 27 27 27 26 25 27 28 29 31 29 25 24 22 26 26 28 33 36
22 18 18 20 21 23 25 25 28 28 29 30 25 20 22 20 19 21 29 27 26 26 25 22 22 20 18 22 25 23 23 22 27 30 27 25 26 22 22 28 28 38 34
38 35 20 17 17 20 29 43 34 42 32 31 22 30 33 28 21 25 33 30 28 24 22 17 20 18 18 19 21 19 19 21 25 25 24 23 25 24 25 32 25 24 33
41 36 36 34 31 35 38 39 50 47 52 28 25 34 47 44 26 23 32 36 30 28 22 19 18 34 29 22 25 18 18 21 23 27 21 20 20 21 22 23 25 25 28
42 43 36 36 34 34 37 42 40 40 48 43 nan 39 51 43 43 47 39 30 41 32 22 14 18 25 19 15 23 21 20 21 27 25 18 17 18 19 19 27 24 27 32
45 42 40 39 38 40 41 42 41 40 43 43 39 43 46 41 26 37 40 40 44 25 13 13 16 19 17 15 17 20 24 26 29 27 19 17 20 20 29 29 29 32 34
34 31 47 55 45 39 42 41 43 45 45 43 39 39 40 41 45 41 40 39 43 25 29 21 15 17 13 14 21 23 25 23 22 22 22 24 27 29 24 31 30 32 34
42 45 47 41 37 46 49 50 46 45 45 50 48 41 36 34 40 42 42 38 37 29 28 20 23 24 25 26 23 25 26 27 25 18 19 14 14 21 31 32 35 35 35
nan nan 61 55 52 54 54 nan nan nan nan nan nan nan nan nan nan nan nan nan nan nan 28 30 34 35 39 37 36 36 35 29 23 18 15 16 21 25 28 33 39 42 34
nan nan nan nan nan nan 64 66 67 nan nan nan nan nan nan nan nan nan nan nan nan nan 41 37 40 40 42 42 40 38 36 34 28 23 21 18 14 15 26 30 33 33 34
nan nan nan nan nan nan nan nan nan nan nan nan nan nan nan nan nan nan nan nan nan nan nan nan nan nan 47 47 44 42 40 39 37 31 25 23 23 25 27 35 40 39 37
nan nan nan nan nan nan nan nan nan nan nan nan nan nan nan nan nan nan nan nan nan nan nan nan nan nan nan nan nan nan nan nan 42 44 41 38 34 32 34 43 44 41 43
nan nan nan nan nan nan nan nan nan nan nan nan nan nan nan nan nan nan nan nan nan nan nan nan nan nan nan nan nan nan nan 45 45 43 44 46 45 45 44 47 47 44 39
nan nan nan nan nan nan nan nan nan nan nan nan nan nan nan nan nan nan nan nan nan nan nan nan nan nan nan nan nan nan nan nan nan nan 52 52 51 50 51 47 46 46 45
nan nan nan nan nan nan nan nan nan nan nan nan nan nan nan nan nan nan nan nan nan nan nan nan nan nan nan nan nan nan nan nan nan nan nan 56 53 48 45 50 43 46 47
nan nan nan nan nan nan nan nan nan nan nan nan nan nan nan nan nan nan nan nan nan nan nan nan nan nan nan nan nan nan nan nan nan nan nan nan nan 61 57 47 43 44 45
nan nan nan nan nan nan nan nan nan nan nan nan nan nan nan nan nan nan nan nan nan nan nan nan nan nan nan nan nan nan nan nan nan nan nan nan nan nan nan nan 41 42 43
nan nan nan nan nan nan nan nan nan nan nan nan nan nan nan nan nan nan nan nan nan nan nan nan nan nan nan nan nan nan nan nan nan nan nan nan nan nan nan nan 46 45 43
nan nan nan nan nan nan nan nan nan nan nan nan nan nan nan nan nan nan nan nan nan nan nan nan nan nan nan nan nan nan nan nan nan nan nan nan nan nan nan nan nan 49 46
Wind_Direction
282 272 263 264 260 254 253 251 250 249 246 255 255 258 261 264 267 268 265 258 280 285 284 267 289 293 283 283 293 294 310 318 327 326 320 324 331 330 324 325 327 327 324
281 267 269 263 260 259 255 246 251 253 257 255 260 259 257 263 263 268 279 280 296 304 303 300 298 299 304 305 303 305 309 312 316 337 324 321 313 317 328 327 327 326 320
278 270 272 265 270 264 262 253 254 261 258 266 261 258 262 256 260 270 276 282 271 285 295 296 299 302 302 303 303 303 302 303 306 310 310 309 316 313 307 309 323 320 324
274 272 265 262 261 265 261 271 267 268 272 272 271 273 271 271 264 264 271 277 281 277 280 287 293 299 302 302 302 304 303 306 308 308 311 307 299 295 303 307 311 313 317
279 281 262 251 252 256 263 257 275 271 271 267 267 266 272 269 266 268 265 266 271 274 276 279 286 294 305 304 297 301 299 294 296 294 304 304 305 306 312 313 311 316 321
285 297 267 255 257 263 267 276 271 279 280 281 283 268 264 267 274 281 279 283 284 285 281 278 283 286 289 300 309 313 306 304 307 309 310 317 324 328 314 313 316 315 316
253 270 284 290 294 283 285 274 271 272 272 279 279 278 273 269 269 271 278 271 274 278 282 288 288 290 295 295 300 307 309 313 317 321 320 328 327 321 316 315 321 318 321
237 263 281 292 293 287 286 280 274 269 274 274 273 271 269 268 273 276 275 272 271 270 273 275 277 277 281 283 288 298 306 310 314 305 317 326 324 322 321 326 326 320 308
234 240 249 270 280 284 279 277 270 263 262 264 263 265 263 257 261 271 270 270 274 269 269 278 282 288 300 301 295 304 308 311 306 317 324 326 326 327 321 311 323 314 337
223 219 226 247 255 266 268 271 271 278 251 259 271 276 266 238 246 270 271 272 264 264 260 277 294 299 300 317 311 308 309 313 306 301 300 303 308 314 327 323 316 327 340
223 227 236 239 250 260 269 271 273 267 267 257 264 283 280 252 227 245 265 264 261 253 251 253 262 266 269 273 284 296 313 304 317 307 297 296 296 303 310 306 310 328 333
222 234 241 244 247 254 259 264 273 274 282 294 nan 289 284 257 242 238 240 256 254 234 211 236 254 262 262 281 282 306 318 297 307 313 306 297 294 293 284 290 295 309 315
229 233 244 244 248 259 270 272 284 283 276 282 290 284 289 279 238 242 244 245 244 238 267 238 228 233 222 281 306 286 296 296 307 316 310 296 286 279 280 290 298 299 302
251 236 248 250 251 258 265 268 275 278 285 286 288 285 292 282 275 261 262 259 271 247 232 230 228 238 245 269 266 286 294 298 313 325 308 286 281 292 288 296 302 306 307
245 255 250 262 262 260 261 263 267 270 276 282 280 281 282 279 269 271 254 256 251 245 234 241 247 260 261 254 264 274 280 276 282 286 304 317 297 299 307 304 301 308 308
nan nan 256 256 263 266 267 nan nan nan nan nan nan nan nan nan nan nan nan nan nan nan 262 248 248 252 253 251 251 255 259 257 258 271 279 290 304 304 303 307 306 316 318
nan nan nan nan nan nan 262 272 276 nan nan nan nan nan nan nan nan nan nan nan nan nan 255 253 256 256 259 259 258 258 260 254 242 250 253 263 273 296 303 319 312 315 317
nan nan nan nan nan nan nan nan nan nan nan nan nan nan nan nan nan nan nan nan nan nan nan nan nan nan 257 254 254 252 252 254 254 251 250 259 271 289 304 306 312 314 310
nan nan nan nan nan nan nan nan nan nan nan nan nan nan nan nan nan nan nan nan nan nan nan nan nan nan nan nan nan nan nan nan 254 257 256 254 264 277 294 299 305 309 304
nan nan nan nan nan nan nan nan nan nan nan nan nan nan nan nan nan nan nan nan nan nan nan nan nan nan nan nan nan nan nan 256 258 259 260 262 263 271 277 285 296 292 293
nan nan nan nan nan nan nan nan nan nan nan nan nan nan nan nan nan nan nan nan nan nan nan nan nan nan nan nan nan nan nan nan nan nan 265 266 270 269 275 278 286 285 286
nan nan nan nan nan nan nan nan nan nan nan nan nan nan nan nan nan nan nan nan nan nan nan nan nan nan nan nan nan nan nan nan nan nan nan 271 272 270 268 283 276 277 281
nan nan nan nan nan nan nan nan nan nan nan nan nan nan nan nan nan nan nan nan nan nan nan nan nan nan nan nan nan nan nan nan nan nan nan nan nan 271 272 273 272 273 279
nan nan nan nan nan nan nan nan nan nan nan nan nan nan nan nan nan nan nan nan nan nan nan nan nan nan nan nan nan nan nan nan nan nan nan nan nan nan nan nan 259 268 271
nan nan nan nan nan nan nan nan nan nan nan nan nan nan nan nan nan nan nan nan nan nan nan nan nan nan nan nan nan nan nan nan nan nan nan nan nan nan nan nan 252 253 256
nan nan nan nan nan nan nan nan nan nan nan nan nan nan nan nan nan nan nan nan nan nan nan nan nan nan nan nan nan nan nan nan nan nan nan nan nan nan nan nan nan 253 251